Retour au catalogue

SRMSAT

ActifRadio amateurLEO
NORAD 37841·PAYLOAD·🇮🇳 India

Lancé Oct 12, 2011 depuis Satish Dhawan Space Centre

Loading…

Prochains Passages (prochaines 24 heures)

TLE

FraisSource: AMSAT

Époque: Sep 14, 2026, 01:51 UTC

1 37841U 11058D   26257.07776403  .00000374  00000-0  59220-4 0  9990
2 37841  19.9710 241.4257 0011984 101.9182 322.2174 14.11592249770397

Suivez SRMSAT en temps réel avec AllMySat

Download on the App Store